Regional Weather Roundup
Issued by NWS

Home | Current Version | Previous Version | Graphics & Text | Print | Product List | Glossary On
Versions: 1 2 3 4 5 6 7 8 9 10 11 12 13 14 15 16 17 18 19 20 21 22 23 24 25 26 27 28 29 30 31 32 33 34 35 36 37 38 39 40 41 42 43 44 45 46 47 48 49 50
000
ASUS43 KOAX 262102
RWRNE

WEATHER ROUNDUP FOR NEBRASKA
NATIONAL WEATHER SERVICE OMAHA NE
400 PM CDT WED JUL 26 2017

NOTES: SATELLITE DATA IS BEING USED TO AUGMENT CLOUD COVER ABOVE
       12000 FEET.
       "FAIR" INDICATES FEW OR NO CLOUDS BELOW 12,000 FEET WITH NO
       SIGNIFICANT WEATHER AND/OR OBSTRUCTIONS TO VISIBILITY.


NEZ001>004-019>022-054>056-262200-
NEBRASKA PANHANDLE

CITY           SKY/WX    TMP DP  RH WIND       PRES   REMARKS
SCOTTSBLUFF    PTSUNNY   82  58  43 NE12      30.19S
ALLIANCE       CLOUDY    80  60  50 NE14      30.17S
CHADRON        CLOUDY    83  55  38 E15       30.15F
GORDON         FAIR      81  55  40 E14G20    30.16F
KIMBALL        PTSUNNY   79  58  48 NE12G22   30.23F
SIDNEY         CLOUDY    80  60  50 N14       30.20S
$$

NEZ057>060-069>072-079>082-262200-
SOUTHWEST NEBRASKA

CITY           SKY/WX    TMP DP  RH WIND       PRES   REMARKS
NORTH PLATTE   CLOUDY    78  66  66 NE12      30.09S
IMPERIAL       CLOUDY    83  63  50 NE16      30.10F
LEXINGTON      CLOUDY    76  69  77 NE10      30.06S
MCCOOK         CLOUDY    79  69  71 NE16      30.06S
OGALLALA       CLOUDY    82  64  52 NE12      30.13S
$$

NEZ005>010-023>029-035>040-094-262200-
NORTH CENTRAL NEBRASKA

CITY           SKY/WX    TMP DP  RH WIND       PRES   REMARKS
VALENTINE      PTSUNNY   87  60  40 NE20G28   30.10S
AINSWORTH      PTSUNNY   80  68  68 NE9       30.10S
BROKEN BOW     CLOUDY    81  68  64 NE8       30.07S
O`NEILL        CLOUDY    80  70  71 N9        30.06R
ORD            PTSUNNY   80  68  66 NE8       30.03F
THEDFORD       CLOUDY    80  67  63 NE14      30.11S
$$

NEZ041-046>049-061>064-073>077-083>087-262200-
SOUTH CENTRAL NEBRASKA

CITY           SKY/WX    TMP DP  RH WIND       PRES   REMARKS
GRAND ISLAND   CLOUDY    79  74  84 NE13      30.01F
AURORA         CLOUDY    75  73  94 NE12      30.01R
HASTINGS       CLOUDY    77  71  82 NE15G23   30.02S
HEBRON         FAIR      84  72  67 SW6       29.97S
HOLDREGE       CLOUDY    75  71  87 NE12      30.04R
KEARNEY        CLOUDY    76  70  82 NE12      30.03S
YORK           CLOUDY    75  72  88 CALM      30.00S
$$

NEZ011>018-030>034-042>045-262200-
NORTHEAST NEBRASKA

CITY           SKY/WX    TMP DP  RH WIND       PRES   REMARKS
NORFOLK        FAIR      82  69  64 NE10      30.01S
ALBION         CLOUDY    80  71  75 NE8       30.03S
BLAIR          HVY RAIN  73  72  97 E3        30.00R
COLUMBUS       FAIR      78  74  87 NE9       30.01S FOG
FREMONT        CLOUDY    75  73  94 E3        29.99S
TEKAMAH        CLOUDY    78  74  87 SE6       29.98F
WAYNE          PTSUNNY   82  76  79 E12       30.00S HX  90
$$

NEZ050>053-065>068-078-088>093-262200-
SOUTHEAST NEBRASKA

CITY           SKY/WX    TMP DP  RH WIND       PRES   REMARKS
LINCOLN        TSTM      73  72  96 NW5       29.98R VSB 1/2
OMAHA EPPLEY   RAIN      74  71  91 NE8       29.99S FOG
BEATRICE       PTSUNNY   84  73  69 SW7       29.96S
FALLS CITY     PTSUNNY   82  75  79 SE8       29.96S
NEBRASKA CITY  CLOUDY    81  78  92 SE6       29.98S
$$

NEZ044-045-051>053-067-262200-
OMAHA AREA

CITY           SKY/WX    TMP DP  RH WIND       PRES   REMARKS
OMAHA EPPLEY   RAIN      74  71  91 NE8       29.99S FOG
BLAIR          HVY RAIN  73  72  97 E3        30.00R
FREMONT        CLOUDY    75  73  94 E3        29.99S
MILLARD        RAIN      76  75  95 NE3       29.98S
OFFUTT AFB     LGT RAIN  74  73  95 NE7       29.98S
WAHOO          LGT RAIN  73  73  97 NE6       29.99R
$$



USA.gov is the U.S. government's official web portal to all federal, state and local government web resources and services.